Overview Statistics Trail Chart Weather Telemetry Raw packets
 

This is the latest recevied weather packets stored in our database for station/object KE6YLF. If no packets are shown the sender has not sent any weather packets the latest 10 day(s).

<< 43 44 45 46 47 48 49 >>
Time Temp. Humidity Pressure Rain* Wind** Luminosity Snow
1788394508 36.67° C 41% 1075 hPa 0 mm - - -
1788394207 36.11° C 42% 1075.1 hPa 0 mm - - -
1788393903 35.56° C 42% 1075.1 hPa 0 mm - - -
1788393601 36.11° C 41% 1075.3 hPa 0 mm - - -
1788393295 36.67° C 40% 1075.3 hPa 0 mm - - -
1788392990 37.22° C 40% 1075.2 hPa 0 mm - - -
1788392685 36.67° C 41% 1075.4 hPa 0 mm - - -
1788392384 36.11° C 42% 1075.3 hPa 0 mm - - -
1788392078 35.56° C 42% 1075.6 hPa 0 mm - - -
1788391778 36.67° C 41% 1075.7 hPa 0 mm - - -
1788391472 36.67° C 41% 1075.4 hPa 0 mm - - -
1788391183 36.67° C 40% 1075.7 hPa 0 mm - - -
1788390868 36.11° C 41% 1075.7 hPa 0 mm - - -
1788390568 36.67° C 40% 1075.8 hPa 0 mm - - -
1788390262 37.22° C 39% 1075.8 hPa 0 mm - - -
1788389962 36.11° C 39% 1075.8 hPa 0 mm - - -
1788389657 36.11° C 39% 1076 hPa 0 mm - - -
1788389355 36.67° C 38% 1076 hPa 0 mm - - -
1788389050 36.67° C 37% 1075.8 hPa 0 mm - - -
1788388747 37.22° C 36% 1075.9 hPa 0 mm - - -
1788388446 37.22° C 35% 1075.7 hPa 0 mm - - -
1788388141 38.33° C 33% 1075.9 hPa 0 mm - - -
1788387839 37.78° C 33% 1075.9 hPa 0 mm - - -
1788387539 38.33° C 32% 1076.1 hPa 0 mm - - -
1788387239 37.78° C 33% 1076 hPa 0 mm - - -

* Rain latest hour (hover to see other rain measurements)
** Current wind speed in m/s (hover to see current wind gust speed)